213  
ASUS44 KJAN 191910  
RWRMS  
 
MISSISSIPPI HOURLY WEATHER ROUNDUP  
NATIONAL WEATHER SERVICE JACKSON MS  
200 PM CDT TUE MAR 19 2019  
 
NOTE: "FAIR: INDICATES FEW OR NO CLOUDS BELOW 12,000 FEET WITH NO  
SIGNIFICANT WEATHER AND/OR S TO VISIBILITY
.  
 
MSZ001>002-007>008-010>013-018>021-025>028-034>036-192000-  
NORTHWEST MISSISSIPPI  
 
CITY SKY/WX TMP DP RH WIND PRES REMARKS
 
BATESVILLE FAIR 61 25 25 E8 30.35F  
CLARKSDALE SUNNY 64 25 22 VRB7 30.37F  
CLEVELAND FAIR 61 29 29 NE8 30.35F  
GREENWOOD FAIR 63 22 20 N12G20 30.34F  
GREENVILLE FAIR 62 27 26 NE7 30.35F  
OLIVE BRANCH SUNNY 57 23 26 E5 30.36F  
OXFORD FAIR 59 19 21 VRB6G17 30.37F  
TUNICA N/A 59 27 29 NE7 30.38F  
WINONA FAIR 58 22 24 NE12G17 30.33F  

 
 
MSZ003>006-009-014>017-022>024-029>033-037>039-192000-  
NORTHEAST MISSISSIPPI  
 
CITY SKY/WX TMP DP RH WIND PRES REMARKS
 
ABERDEEN FAIR 59 30 33 N12 30.35F  
COLUMBUS AFB SUNNY 60 19 20 N8 30.33F  
CORINTH FAIR 59 16 18 NE10 30.35F  
GOLDN TRIANGLE FAIR 59 22 24 NE6 30.34F  
STARKVILLE FAIR 59 23 25 E6G18 30.36F  
TUPELO FAIR 58 18 21 VRB7 30.35F  

 
 
MSZ040-058-192000-  
CENTRAL MISSISSIPPI  
 
CITY SKY/WX TMP DP RH WIND PRES REMARKS
 
JACKSON INTL FAIR 62 21 20 N12 30.32F  
JACKSON HAWKNS FAIR 62 23 22 NE9G18 30.32F  
MADISON FAIR 59 23 25 E5 30.31F  
MERIDIAN KEY FAIR 64 22 20 N13G22 30.30F  
MERIDIAN NAS FAIR 61 19 19 N13 30.31F  
RAYMOND FAIR 64 27 24 VRB3G14 30.32F  
VICKSBURG VKS CLEAR 64 28 25 N13 30.32F  

 
 
MSZ059>079-192000-  
SOUTH MISSISSIPPI  
 
CITY SKY/WX TMP DP RH WIND PRES REMARKS
 
HATTIESBURG FAIR 62 23 22 MISG 30.30F  
LAUREL CLEAR 61 20 20 N7 30.29F  
MCCOMB FAIR 65 20 17 N13G21 30.28F  
NATCHEZ FAIR 64 30 27 E10G17 30.30F  
PINE BELT FAIR 62 22 21 N13 30.30F  

 
 
MSZ080>082-192000-  
COASTAL MISSISSIPPI  
 
CITY SKY/WX TMP DP RH WIND PRES REMARKS
 
BILOXI NOT AVBL  
PASCAGOULA FAIR 68 25 19 N7G20 30.26F  
GULFPORT FAIR 65 23 20 N8 30.26F  

 
 
LAZ007>009-015>016-023>026-192000-  
NORTHEAST LOUISIANA  
 
CITY SKY/WX TMP DP RH WIND PRES REMARKS
 
BASTROP FAIR 64 29 26 E5 30.34F  
TALLULAH/VBURG FAIR 62 33 33 N12 30.33F  
VIDALIA FAIR 65 31 28 N12 30.30F  

 
 
 
CLICK HERE TO GO TO PREVIOUS BULLETINS.

The Nexlab MS Page Main Text Page